Location: *
(28.3744°N, 81.5492°W)
Time: 13:43:03
(UTC+00:00)

Cosmos 1092 Rocket - Pass Details

Date: 15 June 2025
Orbit: 954 x 994 km, 82.9° (Epoch: 15 July)

Event Time Altitude Azimuth Distance (km) Brightness Sun altitude
Exits shadow 07:40:05 54° 297° (WNW) 1,173 4.3 -29.1°
Drops below altitude 10° 07:45:43 10° 355° (N) 2,745 6.9 -28.4°
Sets 07:48:19 0° 360° (N) 3,701 7.8 -28.1°
